Showing default

KITSAT B, 22828

Orbit data source: Space-Track

KITSAT B, 22828 is a payload satellite owned by KAIST (KR) in SSO that was launched on Sun, 26 Sep 1993 UTC via an ARIANE 40 launch vehicle from the French Guiana (FRGUI). Payload-class satellites include a variety of spacecraft equipped with specific instruments for various scientific and technological missions. These include communications satellites like Starlink; space stations such as the ISS; scientific satellites like the Hubble; Earth observation satellites from companies like Planet Labs, Umbra, and HawkEye 360; GPS; miniature CubeSats for education and research; and military/defense satellites.

Loading next visibility...
Identifier
22828, 1993-061F
Orbit
SSO
Country
Flag of KRKR / SKOR
Related business
Manufacturer
SSTL
Mission
Non-operational Civil Com/Imaging
Bus & Motor
UOSAT, Unknown motor
Mass
50 kg wet, 50 kg dry
Launch date (UTC)
1993-09-26 (33 years ago)
Launch vehicle
ARIANE 40
Launch site
French Guiana (FRGUI)
Object type
Payload
Rocket body
Debris
Shape & HBR
Box + 1 Ant, 3.3 m
Radar Cross Section
0.632 m², Medium (>0.1 m² and < 1m²)

Expand to show TLE details & history
Last TLE update: 12 hours ago

TLE from 12 hours ago
0 KITSAT B
1 22828U 93061F   26125.74624546  .00000148  00000-0  72245-4 0  9992
2 22828  98.6871 193.0629 0010139 165.0107 195.1378 14.31782875669738
Epoch: 2026-05-05T17:54Z
TLE epoch observation values (Epoch: 2026-05-05T17:54:35.607Z)
Latitude
-0.00008°
Longitude
60.79788°
Altitude
795.722 km
Speed
7.452 km/s
True Right ascension
12h 52m 15s
True Declination
0° 00' 00"
Sunlit
Object was in full shadow at epoch
Visualization orbit readout
Latitude
Unknown
Longitude
Unknown
Altitude
Unknown
Speed
Unknown
Apparent Right ascension
Unknown
Apparent Declination
Unknown
Sunlit
N/A
Visualization observer readout
Local Sidereal Time
13:44:40
Azimuth
Unknown
Elevation
Unknown
Doppler factor
Unknown
Orbital elements
Apogee altitude
790.18 km
Perigee altitude
775.659 km
Semi-major axis
7,161.056 km
Eccentricity
0.00101
Inclination
98.6871°
RAAN
193.0629°
Arg. of periapsis
165.0107°
True anomaly
195.1075°
Mean anomaly
195.1378°
Eccentric anomaly
195.12264°
Mean motion
3.5816 °/min
Orbital period
100.51 mins
BSTAR
0.000072245
Loading maneuver chart data...
Computing Atmospheric mass density...
Loading historical data...
Loading historical data...
Loading historical data...
Loading historical data...
Loading historical data...
Loading historical data...
Loading historical data...

Documentation

Showing up to 5 results
|